Weather in Yurkino

Russia / Vologda Oblast     59°29′22″N   43°34′56″E
temp.,
°C
wind,
m/s
gust,
m/s
humid.,
%
clouds,
%
prec.,
mm/h
press.,
hPa
HPBL,
m
11 may, tue
tue1100:00+5sse017333 0.0 102910
03:00+4sse117722 0.0 103010
06:00+7sse116843 0.0 103072
09:00+13ssw11485 0.0 1031565
12:00+17se114120 0.0 1030941
15:00+19se1141100 0.0 10291125
18:00+17sse115698 0.0 102938
21:00+11sse116941 0.0 103010
12 may, wed
wed1200:00+9sse11755 0.0 103010
03:00+8s117637 0.0 103110
06:00+11sse126740 0.0 103178
09:00+17ese12451 0.0 1030479
12:00+20se22330 0.0 1029977
15:00+21se23310 0.0 10281168
18:00+20se23520 0.0 102796
21:00+14ese22750 0.0 102724
13 may, thu
thu1300:00+12se23786 0.0 102756
03:00+13se257754 0.0 1027102
06:00+14se268375 0.1 1026164
09:00+17ese357339 0.1 1025258
12:00+23se36439 0.0 10242144
15:00+22ese475114 0.0 1022826
18:00+19se386674 0.1 1021339
21:00+16se4107593 0.1 1020434
14 may, fri
fri1400:00+13se31089100 0.0 1019363
03:00+14sse3990100 0.2 1018527
06:00+14s4995100 0.6 1018574
09:00+17ssw467449 0.8 10181017
12:00+20sw35512 0.0 10181319
15:00+21sw354497 0.0 10181666
18:00+19ssw2361100 0.0 1018111
21:00+14ssw22776 0.0 101810
15 may, sat
sat1500:00+13s228718 0.0 101814
03:00+11sse259297 0.0 101883
06:00+13sse1585100 0.0 1016171
09:00+20s476299 0.0 1016965
12:00+24sse3454100 0.0 10141274
15:00+25sse465332 0.0 10131675
18:00+24se4960100 0.3 10111015
21:00+18sse41371100 0.3 1010456